Regional Weather Roundup
Issued by NWS

Home | Current Version | Previous Version | Graphics & Text | Print | Product List | Glossary On
Versions: 1 2 3 4 5 6 7 8 9 10 11 12 13 14 15 16 17 18 19 20 21 22 23 24 25 26 27 28
000
ASUS45 KPSR 171310
RWRAZ

ARIZONA HOURLY REGIONAL WEATHER ROUNDUP
NATIONAL WEATHER SERVICE PHOENIX AZ
600 AM MST FRI NOV 17 2017

NOTE: FAIR INDICATES FEW OR NO CLOUDS BELOW 12,000 FEET WITH NO
SIGNIFICANT WEATHER AND/OR OBSTRUCTIONS TO VISIBILITY.

AZZ001>003-036-171400-
NORTHWEST ARIZONA

CITY           SKY/WX    TMP DP  RH WIND       PRES   REMARKS
BULLHEAD CITY  CLOUDY    66  32  28 SE5       29.88F
KINGMAN        CLOUDY    64  34  32 SW14      29.98S
$$

AZZ004>008-015-016-018-171400-
NORTH CENTRAL ARIZONA

CITY           SKY/WX    TMP DP  RH WIND       PRES   REMARKS
GRAND CANYON   CLOUDY    48  30  49 SW10      30.08F
WILLIAMS       MOCLDY    50  30  46 SW15G26   30.10S
PRESCOTT       CLOUDY    57  32  38 SE10      30.08S
FLAGSTAFF      CLOUDY    47  27  45 SW13      30.13S
PAYSON           N/A     50  27  40 MISG      30.12F
PAGE           MOCLDY    64  34  32 SW12G25   29.87F
$$

AZZ009>014-017-171400-
NORTHEAST ARIZONA

CITY           SKY/WX    TMP DP  RH WIND       PRES   REMARKS
WINSLOW        PTCLDY    49  31  49 S7        30.05F
SAINT JOHNS    PTCLDY    52  22  30 W10       30.10R
WINDOW ROCK    CLOUDY    48  29  47 VRB3      30.11S
SHOW LOW       CLEAR     48  25  40 SW6       30.16R
$$

AZZ540-542>544-546-548-171400-
GREATER PHOENIX AREA

CITY           SKY/WX    TMP DP  RH WIND       PRES   REMARKS
PHOENIX        CLOUDY    63  33  32 E7        29.94R
BUCKEYE        CLOUDY    59  27  29 NW3       29.94S
GLENDALE       PTCLDY    63  34  34 CALM      29.96
LUKE AFB       CLOUDY    60  37  42 N5        29.94R
DEER VALLEY    MOCLDY    64  27  24 E8        29.95S
SCOTTSDALE     MOCLDY    61  36  39 CALM      29.97S
MESA-FALCON    CLEAR     63  30  29 N7        29.97
MESA-GATEWAY   PTCLDY    57  28  33 SE8       29.97R
CHANDLER       PTCLDY    57  30  35 CALM      29.96
$$

AZZ539-553-171400-
SOUTHWEST MARICOPA COUNTY AND PINAL COUNTY

CITY           SKY/WX    TMP DP  RH WIND       PRES   REMARKS
CASA GRANDE    NOT AVBL
$$

AZZ503-504-507>509-171400-
SOUTHEAST ARIZONA

CITY           SKY/WX    TMP DP  RH WIND       PRES   REMARKS
TUCSON         CLEAR     53  22  29 S5        30.04S
DAVIS-MONTHAN  PTCLDY    56  22  26 S10       30.02S
RYAN FIELD     CLEAR    N/A N/A N/A E8        30.04
NOGALES        CLEAR     46  22  38 CALM      30.10R
SIERRA VISTA   CLEAR     54  18  24 SW3       30.13S
DOUGLAS        CLEAR     42  17  36 CALM      30.11S
SAFFORD        PTCLDY    45  17  32 W3        30.04R
$$

AZZ532-171400-
SOUTHWEST ARIZONA

CITY           SKY/WX    TMP DP  RH WIND       PRES   REMARKS
YUMA           MOCLDY    64  44  48 S5        29.90R
$$

CAZ041-043-047-048-061-525>527-560>570-171400-
SOUTHERN CALIFORNIA

CITY           SKY/WX    TMP DP  RH WIND       PRES   REMARKS
DOWNTOWN L.A.  LGT RAIN  63  59  87 CALM      30.00R
L.A. AIRPORT   LGT RAIN  64  60  87 W5        30.00S
SAN DIEGO      CLOUDY    64  55  72 CALM      30.01R
BURBANK        CLOUDY    63  56  78 CALM      30.01R
ONTARIO        CLOUDY    63  50  62 CALM      30.02R
RIVERSIDE      CLOUDY    62  52  69 NE3       30.02R
PALM SPRINGS   CLOUDY    70  45  40 NW3       29.94R
EL CENTRO NAS  MOCLDY    70  41  34 W9        29.92R
IMPERIAL       MOCLDY    73  43  33 NW14      29.89R
BLYTHE         CLOUDY    68  43  40 CALM      29.89R
NEEDLES        CLOUDY    71  34  25 SE8       29.89R
$$

NVZ020-UTZ003-171400-
SOUTHERN NEVADA-UTAH

CITY           SKY/WX    TMP DP  RH WIND       PRES   REMARKS
LAS VEGAS      MOCLDY    67  40  37 SW15G23   29.84R
SALT LAKE CITY LGT RAIN  45  42  89 N10       29.73F
$$

NMZ009-TXZ055-171400-
NEW MEXICO-WEST TEXAS

CITY           SKY/WX    TMP DP  RH WIND       PRES   REMARKS
ALBUQUERQUE    CLOUDY    47  19  33 SE9       30.07S
EL PASO        PTCLDY    50  32  50 CALM      30.06S
$$


........................KEY........................
SKY/WX - SKY CONDITION/WEATHER
TMP    - TEMPERATURE IN FAHRENHEIT
DP     - DEW POINT IN FAHRENHEIT
RH     - RELATIVE HUMIDITY IN PERCENT
WIND   - DIRECTION AND SPEED IN MILES PER HOUR (MPH)
VRB    - VARIABLE WIND DIRECTION
PRES   - MEAN SEA LEVEL PRESSURE IN INCHES OF MERCURY
         F - FALLING PRESSURE   R - RISING PRESSURE
         S - STEADY PRESSURE
VSB    - VISIBILITY IN MILES
HX     - HEAT INDEX IN FAHRENHEIT
WCI    - WIND CHILL INDEX IN FAHRENHEIT
TC     - TEMPERATURE IN CELSIUS WHICH IS ALSO KNOWN AS
         TEMPERATURE IN CENTIGRADE
AFB    - AIR FORCE BASE
         LUKE AFB IS LUKE AIR FORCE BASE
         DAVIS-MONTHAN IS DAVIS-MONTHAN AIR FORCE BASE
NAS    - NAVAL AIR STATION
         EL CENTRO NAS IS EL CENTRO NAVAL AIR STATION
N/A    - NOT AVAILABLE





USA.gov is the U.S. government's official web portal to all federal, state and local government web resources and services.